This demonstration page uses our WeatherBlox Daily Observations layout. Learn more.

Left ArrowRight Arrow

38.89511, -77.03637

Hourly Observations for March 3, 2021

Temp ( °F °C ) Dew Point ( °F °C ) Humidity (%) Winds ( mph kmh ) Pressure ( in mb ) Visibility ( mi km ) Precip ( " mm )
12:52 am 00:52 Mostly Clear 35 1.7 22 -5.6 59 59 SSW 10 17 30.11 1020 10 16.0934 0 0
1:52 am 01:52 Mostly Clear 34 1.1 22 -5.6 61 61 SSW 8 13 30.1 1019 10 16.0934 0 0
2:52 am 02:52 Mostly Clear 34 1.1 22 -5.6 61 61 SSW 3 6 30.07 1018 10 16.0934 0 0
3:52 am 03:52 Mostly Clear 35 1.7 21 -6.1 57 57 Calm 30.05 1018 10 16.0934 0 0
4:52 am 04:52 Mostly Clear 33 0.6 24 -4.4 70 70 SSW 5 7 30.05 1018 10 16.0934 0 0
5:52 am 05:52 Mostly Clear 31 -0.6 23 -5 72 72 SW 6 9 30.04 1017 10 16.0934 0 0
6:52 am 06:52 Mostly Sunny 32 0 24 -4.4 73 73 SW 5 7 30.04 1017 10 16.0934 0 0
7:52 am 07:52 Mostly Sunny 35 1.7 27 -2.8 72 72 SSW 7 11 30.04 1017 10 16.0934 0 0
8:52 am 08:52 Mostly Sunny 40 4.4 26 -3.3 58 58 S 3 6 30.04 1017 10 16.0934 0 0
9:52 am 09:52 Mostly Sunny 45 7.2 28 -2.2 52 52 SE 5 7 30.03 1017 10 16.0934 0 0
10:44 am 10:44 Mostly Sunny 52 11.1 16 -8.9 24 24 WNW 12 19 30.01 1016 10 16.0934 0 0
10:52 am 10:52 Mostly Sunny 53 11.7 17 -8.3 24 24 WNW 17 28 30 1016 10 16.0934 0 0
11:52 am 11:52 Mostly Sunny 54 12.2 17 -8.3 23 23 WNW 12 19 29.98 1015 10 16.0934 0 0
12:52 pm 12:52 Sunny 56 13.3 19 -7.2 24 24 WNW 9 15 29.96 1014 10 16.0934 0 0
1:52 pm 13:52 Sunny 58 14.4 20 -6.7 23 23 W 14 22 29.92 1013 10 16.0934 0 0
2:52 pm 14:52 Sunny 60 15.6 19 -7.2 20 20 VRB 7 11 29.9 1013 10 16.0934 0 0
3:52 pm 15:52 Mostly Sunny 60 15.6 17 -8.3 19 19 WSW 8 13 29.88 1012 10 16.0934 0 0
4:52 pm 16:52 Sunny 59 15 18 -7.8 20 20 VRB 7 11 29.88 1012 10 16.0934 0 0
5:52 pm 17:52 Sunny 56 13.3 19 -7.2 24 24 SW 8 13 29.88 1012 10 16.0934 0 0
6:52 pm 18:52 Clear 53 11.7 22 -5.6 30 30 S 5 7 29.89 1012 10 16.0934 0 0
7:52 pm 19:52 Clear 50 10 27 -2.8 41 41 SW 6 9 29.89 1012 10 16.0934 0 0
8:52 pm 20:52 Clear 47 8.3 30 -1.1 52 52 S 5 7 29.89 1012 10 16.0934 0 0
9:52 pm 21:52 Clear 44 6.7 33 0.6 65 65 S 6 9 29.91 1013 10 16.0934 0 0
10:52 pm 22:52 Clear 42 5.6 35 1.7 76 76 S 7 11 29.91 1013 10 16.0934 0 0
11:52 pm 23:52 Clear 41 5 35 1.7 79 79 S 9 15 29.9 1012 10 16.0934 0 0

Powered by AerisWeather